Weather History for KNHK - April, 2013

Change the Weather History Date:

Wednesday, April 10, 2013

  Actual Average Record
Temperature  
Mean Temperature 76 °F -  
Max Temperature 87 °F 57 °F 87 °F (2013)
Min Temperature 66 °F 40 °F 28 °F (2007)
Cooling Degree Days 12    
Growing Degree Days 26 (Base 50)    
Moisture  
Dew Point 55 °F    
Average Humidity 46    
Maximum Humidity 63    
Minimum Humidity 32    
Precipitation  
Precipitation 0.00 in - - ()
Sea Level Pressure  
Sea Level Pressure 29.91 in    
Wind  
Wind Speed 10 mph (SSW)    
Max Wind Speed 13 mph    
Max Gust Speed 21 mph    
Visibility 10 miles    
Events      
Averages and records for this station are not official NWS values.
T = Trace of Precipitation, MM = Missing Value Source: NWS Daily Summary

Daily Weather History Graph

Daily Weather History Graph

Search for Another Location

Airport or City:

Trip Planner

Search our weather history database for the weather conditions in past years. The results will help you decide how hot, cold, wet, or windy it might be!

Date:

Astronomy

Apr. 10, 2013 Rise Set
Actual Time 6:36 AM EDT 7:37 PM EDT
Civil Twilight 6:09 AM EDT 8:04 PM EDT
Nautical Twilight 5:37 AM EDT 8:36 PM EDT
Astronomical Twilight 5:04 AM EDT 9:10 PM EDT
Moon 6:32 AM EDT (4/10) 8:10 PM EDT (4/10)
Length of Visible Light 13h 54m
Length of Day
13h 00m
New Moon, 0% of the Moon is Illuminated
Apr 10
New Moon
Apr 18
First Quarter
Apr 25
Full
May 2
Last Quarter
May 9
New

Hourly Weather History & Observations

Time (EDT) Temp. Heat Index Dew Point Humidity Pressure Visibility Wind Dir Wind Speed Gust Speed Precip Events Conditions
12:52 AM 72.0 °F - 52.0 °F 49% 29.95 in 10.0 mi SSW 10.4 mph - N/A   Clear
1:52 AM 72.0 °F - 53.1 °F 51% 29.94 in 10.0 mi SSW 12.7 mph - N/A   Clear
2:52 AM 71.1 °F - 54.0 °F 55% 29.93 in 10.0 mi SSW 12.7 mph 20.7 mph N/A   Clear
3:52 AM 71.1 °F - 54.0 °F 55% 29.93 in 10.0 mi SSW 12.7 mph 20.7 mph N/A   Clear
4:52 AM 69.1 °F - 54.0 °F 58% 29.94 in 10.0 mi SW 12.7 mph - N/A   Clear
5:52 AM 68.0 °F - 54.0 °F 61% 29.94 in 10.0 mi SW 12.7 mph - N/A   Partly Cloudy
6:52 AM 66.9 °F - 54.0 °F 63% 29.96 in 10.0 mi SW 10.4 mph - N/A   Scattered Clouds
7:52 AM 70.0 °F - 55.0 °F 59% 29.98 in 10.0 mi WSW 10.4 mph - N/A   Scattered Clouds
8:52 AM 73.0 °F - 55.9 °F 55% 29.99 in 10.0 mi WSW 9.2 mph - N/A   Scattered Clouds
9:52 AM 75.9 °F - 55.9 °F 50% 29.98 in 10.0 mi WSW 9.2 mph - N/A   Scattered Clouds
10:52 AM 80.1 °F 80.6 °F 57.9 °F 47% 29.98 in 10.0 mi SW 10.4 mph - N/A   Scattered Clouds
11:52 AM 81.0 °F 80.8 °F 55.9 °F 42% 29.96 in 10.0 mi SSW 11.5 mph - N/A   Scattered Clouds
12:52 PM 84.9 °F 83.9 °F 57.0 °F 38% 29.95 in 10.0 mi WSW 10.4 mph 19.6 mph N/A   Scattered Clouds
1:52 PM 86.0 °F 84.0 °F 53.1 °F 32% 29.94 in 10.0 mi SW 9.2 mph - N/A   Partly Cloudy
2:52 PM 87.1 °F 85.3 °F 55.0 °F 33% 29.91 in 10.0 mi SSW 9.2 mph 16.1 mph N/A   Partly Cloudy
3:52 PM 86.0 °F 84.2 °F 54.0 °F 33% 29.88 in 10.0 mi Variable 6.9 mph 18.4 mph N/A   Partly Cloudy
4:52 PM 78.1 °F - 55.0 °F 45% 29.87 in 10.0 mi East 5.8 mph - N/A   Partly Cloudy
5:52 PM 81.0 °F 80.8 °F 55.9 °F 42% 29.85 in 10.0 mi Variable 6.9 mph - N/A   Partly Cloudy
6:52 PM 82.0 °F 81.4 °F 55.0 °F 39% 29.82 in 10.0 mi SE 3.5 mph - N/A   Mostly Cloudy
7:52 PM 81.0 °F 80.5 °F 54.0 °F 39% 29.82 in 10.0 mi South 6.9 mph - N/A   Mostly Cloudy
8:52 PM 80.1 °F 79.9 °F 53.1 °F 39% 29.82 in 10.0 mi South 6.9 mph - N/A   Scattered Clouds
9:52 PM 79.0 °F - 53.1 °F 40% 29.83 in 10.0 mi SSW 5.8 mph - N/A   Clear
10:52 PM 79.0 °F - 54.0 °F 42% 29.83 in 10.0 mi SSW 12.7 mph - N/A   Clear
11:52 PM 77.0 °F - 54.0 °F 45% 29.84 in 10.0 mi SSW 10.4 mph - N/A   Clear